This is the latest recevied weather packets stored in our database for station/object AB4KN. If no packets are shown the sender has not sent any weather packets the latest 10 day(s).
| Time | Temp. | Humidity | Pressure | Rain* | Wind** | Luminosity | Snow |
|---|---|---|---|---|---|---|---|
| 1777589280 | 20.56° C | 52% | 1016.5 hPa | 0 mm | - | 23 W/m² | - |
| 1777588977 | 20.56° C | 52% | 1016.4 hPa | 0 mm | - | 21 W/m² | - |
| 1777588672 | 20.56° C | 52% | 1016.4 hPa | 0 mm | - | 28 W/m² | - |
| 1777588368 | 20.56° C | 51% | 1016.5 hPa | 0 mm | - | 27 W/m² | - |
| 1777588064 | 20.56° C | 50% | 1016.5 hPa | 0 mm | - | 26 W/m² | - |
| 1777587760 | 21.11° C | 49% | 1016.2 hPa | 0 mm | - | 28 W/m² | - |
| 1777587459 | 21.11° C | 49% | 1016.3 hPa | 0 mm | - | 28 W/m² | - |
| 1777587157 | 21.11° C | 53% | 1016.4 hPa | 0 mm | - | 26 W/m² | - |
| 1777586851 | 21.67° C | 52% | 1016.1 hPa | 0 mm | - | 28 W/m² | - |
| 1777586548 | 21.67° C | 52% | 1016.4 hPa | 0 mm | - | 26 W/m² | - |
| 1777586243 | 21.67° C | 51% | 1016.1 hPa | 0 mm | - | 29 W/m² | - |
| 1777585941 | 21.67° C | 51% | 1016 hPa | 0 mm | - | 32 W/m² | - |
| 1777585636 | 21.67° C | 53% | 1015.8 hPa | 0 mm | - | 34 W/m² | - |
| 1777585331 | 21.67° C | 50% | 1015.9 hPa | 0 mm | - | 30 W/m² | - |
| 1777585026 | 21.67° C | 49% | 1016 hPa | 0 mm | - | 34 W/m² | - |
| 1777584723 | 21.67° C | 49% | 1015.9 hPa | 0 mm | - | 32 W/m² | - |
| 1777584421 | 22.22° C | 48% | 1015.8 hPa | 0 mm | - | 27 W/m² | - |
| 1777584117 | 22.22° C | 52% | 1016 hPa | 0 mm | - | 29 W/m² | - |
| 1777583816 | 21.67° C | 54% | 1016 hPa | 0 mm | - | 30 W/m² | - |
| 1777583511 | 21.67° C | 52% | 1015.9 hPa | 0 mm | - | 47 W/m² | - |
| 1777583206 | 21.67° C | 52% | 1016.2 hPa | 0 mm | - | 46 W/m² | - |
| 1777582901 | 21.67° C | 52% | 1016 hPa | 0 mm | - | 46 W/m² | - |
| 1777582599 | 21.67° C | 52% | 1016.2 hPa | 0 mm | - | 62 W/m² | - |
| 1777582293 | 21.67° C | 53% | 1016.2 hPa | 0 mm | - | 54 W/m² | - |
| 1777581991 | 21.67° C | 52% | 1016.4 hPa | 0 mm | - | 65 W/m² | - |
* Rain latest hour (hover to see other rain measurements)
** Current wind speed in m/s (hover to see current wind gust speed)